"Pseudo-MPEC" for C43DAY1

Created 2024 Sep 6 6:22:05 UT using Find_Orb

Click here for an explanation of pseudo-MPECs

 
 Astrometry: 
     C43DAY1* C2024 09 05.40562 01 41 51.69 +21 18 00.6    ~95Ab 17.6 GVNEOCP703
     C43DAY1  C2024 09 05.41032 01 41 53.07 +21 20 09.3    ~95Ab 18.9 GVNEOCP703
     C43DAY1  C2024 09 05.41261 01 41 53.66 +21 21 10.8    ~95Ab 17.8 GVNEOCP703
     C43DAY1 mC2024 09 05.44956601 42 03.758+21 36 22.64   ~95B7 17.66GVNEOCPI52
     C43DAY1 mC2024 09 05.44981701 42 03.823+21 36 28.37   ~95B7 17.95GVNEOCPI52
     C43DAY1 mC2024 09 05.45006801 42 03.899+21 36 34.24   ~95B7 18.47GVNEOCPI52
     C43DAY1 mC2024 09 05.45031801 42 03.953+21 36 39.53   ~95B7 17.80GVNEOCPI52
     C43DAY1 KB2024 09 05.45539 01 41 27.466+21 32 01.79   ~95BM 18.1 RZNEOCPH36
     C43DAY1 KB2024 09 05.45706 01 41 28.308+21 32 37.57   ~95BM 17.7 RZNEOCPH36
     C43DAY1 KB2024 09 05.45874 01 41 29.158+21 33 13.39   ~95BM 17.8 RZNEOCPH36
     C43DAY1 mC2024 09 05.49405401 42 16.816+21 51 45.90   ~95C7 17.90GVNEOCPI52
     C43DAY1 mC2024 09 05.49430501 42 16.902+21 51 50.58   ~95C7 17.34GVNEOCPI52
     C43DAY1 mC2024 09 05.49455501 42 17.014+21 51 55.55   ~95C7 17.24GVNEOCPI52
     C43DAY1 mC2024 09 05.49480601 42 17.075+21 51 59.94   ~95C7 17.58GVNEOCPI52
     C43DAY1 KB2024 09 05.58525301 47 09.233+22 14 34.50   ~95Eq 18.3 VZNEOCPQ06
     C43DAY1 KB2024 09 05.58903101 47 10.352+22 15 54.87   ~95Eq 19.0 VZNEOCPQ06
     C43DAY1 KB2024 09 05.59281101 47 11.409+22 17 14.75   ~95Eq 18.9 VZNEOCPQ06
     C43DAY1 KC2024 09 05.60000701 47 14.43 +22 19 50.9    ~95Fb 18.6 GVNEOCP900
     C43DAY1 KC2024 09 05.60982101 47 16.49 +22 23 09.5    ~95Fb       VNEOCP900
     C43DAY1 KC2024 09 05.61963501 47 18.03 +22 26 21.2    ~95Fb 18.3 GVNEOCP900
     C43DAY1 KB2024 09 05.96086 01 50 11.80 +23 28 40.8    ~95Nb 18.9 GXNEOCPM45
     C43DAY1 KB2024 09 05.96430 01 50 11.69 +23 29 15.5    ~95Nb 19.0 GXNEOCPM45
     C43DAY1 KB2024 09 05.96746 01 50 11.53 +23 29 47.2    ~95Nb 19.3 GXNEOCPM45
     C43DAY1 1C2024 09 05.97088 01 50 23.82 +23 27 03.9    ~966M 20.7 VXNEOCP033
     C43DAY1 1C2024 09 05.97120 01 50 23.83 +23 27 07.4    ~966M 20.7 VXNEOCP033
     C43DAY1 1C2024 09 05.97151 01 50 23.85 +23 27 10.5    ~966M 19.6 VXNEOCP033
     C43DAY1 KB2024 09 06.10528 01 50 27.360+23 49 11.24   ~965M 19.6 VZNEOCPC95
     C43DAY1 KB2024 09 06.10969 01 50 26.712+23 49 40.30   ~965M 19.6 VZNEOCPC95
     C43DAY1 KB2024 09 06.11411 01 50 26.208+23 50 10.18   ~965M 19.7 VZNEOCPC95
     C43DAY1 KC2024 09 06.14103301 50 12.85 +23 52 02.7    ~9647 19.1 GVNEOCPL01
     C43DAY1 KC2024 09 06.14271401 50 12.73 +23 52 11.9    ~9647 19.2 GVNEOCPL01
     C43DAY1 KC2024 09 06.14439701 50 12.60 +23 52 21.1    ~9647 19.3 GVNEOCPL01
     C43DAY1 KC2024 09 06.14607901 50 12.50 +23 52 30.2    ~9647 19.1 GVNEOCPL01

Station data:
(033) Karl Schwarzschild Observatory, Tautenburg  (N50.980139 E11.711240)
   Germany.  Observer B. Stecklum. 1.34-m f/3 Schmidt + CCD.
(703) Catalina Sky Survey  (N32.417029 W110.732640)  US/Arizona.  Observers
   T. A. Pruyne, B. M. Africano, E. J. Christensen, G. A. Farneth, D. C.
   Fuls, A. R. Gibbs, A. D. Grauer, H. Gröller, J. A. Johnson, R. A.
   Kowalski, S. M. Larson, G. J. Leonard, D. Rankin, R. L. Seaman, F. C.
   Shelly, K. W. Wierzchoś. 0.68 m Schmidt + 10K CCD.
(900) Moriyama  (N35.049753 E135.989940)  Japan.  Observer Y. Ikari. 0.26-m
   f/7.0 reflector + CCD.
(C95) SATINO Remote Observatory, Haute Provence  (N43.932047 E5.712390)
   France.  Observers D. Husar, J. Jahn, K. Meo, W. Pasche. Measurers D.
   Husar, J. Jahn. 0.60-m f/3.2 Newtonian reflector + CCD.
(H36) Sandlot Observatory, Scranton  (N38.797718 W95.706550)  US/Kansas.
   Observer G. Hug. 0.56-m reflector + CCD.
(I52) Steward Observatory, Mt. Lemmon Station  (N32.442570 W110.788920)
   US/Arizona.  Observers T. A. Pruyne, B. M. Africano, E. J. Christensen, G.
   A. Farneth, D. C. Fuls, A. R. Gibbs, A. D. Grauer, H. Gröller, J. A.
   Johnson, R. A. Kowalski, S. M. Larson, G. J. Leonard, D. Rankin, R. L.
   Seaman, F. C. Shelly, K. W. Wierzchoś. 1.0-m prime focus + CCD.
(L01) Višnjan Observatory, Tičan  (N45.290897 E13.749300)  Croatia.
   Observers K. Korlević, D. Pujagic, V. Dobos. Measurers D. Pujagic, K.
   Korlević. 1.0-m f/2.9 reflector + CCD.
(M45) Starhopper Observatory, Sfantu Gheorghe  (N45.865582 E25.768900)
   Romania.  Observer F. Ursache. 0.41-m f/7.5 reflector + CMO.
(Q06) Tarui Observatory, Tarui  (N35.394791 E136.495470)  Japan.

Orbital elements:  C43DAY1
   Perigee 2024 Sep 4.71879 +/- 0.000125 TT = 17:15:03 (JD 2460558.21879)
Epoch 2024 Sep  6.0 TT = JDT 2460559.5                           AutoNEOCP
q 40586.0945 +/- 6.06               (J2000 equator)
H   29.03 G 0.15                    Peri.  293.21521 +/- 0.0036
                                    Node     8.90551 +/- 0.0006
e   5.6647482 +/- 0.00218           Incl.   54.17317 +/- 0.0009
From 33 observations 2024 Sept. 5-6 (17.8 hr); mean residual 0".26
Residuals in arcseconds: 
240905 703  .12-  .52-    240905 I52  .06-  .10-    240905 M45  .02+  .01+    
240905 703  .51+  .08+    240905 I52  .35+  .17+    240905 033  .20+  .00     
240905 703  .19-  .09+    240905 I52  .04+  .16-    240905 033  .08+  .16+    
240905 I52  .02-  .15-    240905 Q06  .37-  .01+    240905 033  .12+  .02+    
240905 I52  .05-  .14-    240905 Q06  .16-  .02-    240906 C95  .64+  .15+    
240905 I52  .07+  .01+    240905 Q06  .22+  .34+    240906 C95  .42-  .47-    
240905 I52  .11-  .38-    240905 900  .32-  .51-    240906 C95  .43+  .20+    
240905 H36  .09-  .33+    240905 900  .29+  .07+    240906 L01  .15-  .10-    
240905 H36  .01-  .30+    240905 900  .24-  .15-    240906 L01  .26-  .12-    
240905 H36  .05+  .34+    240905 M45  .17+  .33+    240906 L01  .55-  .09-    
240905 I52  .10-  .06-    240905 M45  .39+  .08+    240906 L01  .48-  .08-    

Ephemerides (geocentric):
Date (UTC) HH   RA             Dec           delta  r     elong  mag " sig PA
---- --------  ------------   ------------  ------ ------ -----  --- --------
2024 09 06 06  01 51 20.679   +24 12 09.14  920021 1.0118 128.3 19.9 .206  17
2024 09 06 07  01 51 33.784   +24 15 43.71  944581 1.0119 128.3 20.0 .232  19
2024 09 06 08  01 51 46.225   +24 19 07.23  969138 1.0120 128.3 20.0 .257  21
2024 09 06 09  01 51 58.052   +24 22 20.55  993691 1.0121 128.2 20.1 .282  23
2024 09 06 10  01 52 09.307   +24 25 24.40  .00681 1.0122 128.2 20.1 .307  24
2024 09 06 11  01 52 20.031   +24 28 19.44  .00697 1.0122 128.2 20.2 .332  25
2024 09 06 12  01 52 30.259   +24 31 06.30  .00713 1.0123 128.2 20.2 .356  26
2024 09 06 13  01 52 40.024   +24 33 45.52  .00730 1.0124 128.2 20.3 .380  27
2024 09 06 14  01 52 49.356   +24 36 17.62  .00746 1.0125 128.1 20.3 .403  27
2024 09 06 15  01 52 58.283   +24 38 43.04  .00763 1.0126 128.1 20.4 .426  28
2024 09 06 16  01 53 06.830   +24 41 02.22  .00779 1.0127 128.1 20.4 .449  29
2024 09 06 17  01 53 15.019   +24 43 15.55  .00795 1.0128 128.1 20.5 .471  29
2024 09 06 18  01 53 22.872   +24 45 23.37  .00812 1.0129 128.1 20.5 .493  29
2024 09 06 19  01 53 30.409   +24 47 26.01  .00828 1.0130 128.1 20.6 .514  30
2024 09 06 20  01 53 37.647   +24 49 23.79  .00845 1.0131 128.1 20.6 .535  30
2024 09 06 21  01 53 44.604   +24 51 16.96  .00861 1.0131 128.1 20.6 .555  30
2024 09 06 22  01 53 51.294   +24 53 05.81  .00877 1.0132 128.1 20.7 .575  31
2024 09 06 23  01 53 57.732   +24 54 50.55  .00894 1.0133 128.1 20.7 .594  31
2024 09 07 00  01 54 03.932   +24 56 31.42  .00910 1.0134 128.1 20.8 .613  31
2024 09 07 01  01 54 09.905   +24 58 08.61  .00927 1.0135 128.1 20.8 .632  31
2024 09 07 02  01 54 15.664   +24 59 42.33  .00943 1.0136 128.1 20.8 .650  32
2024 09 07 03  01 54 21.219   +25 01 12.74  .00959 1.0137 128.1 20.9 .668  32
2024 09 07 04  01 54 26.580   +25 02 40.02  .00976 1.0138 128.1 20.9 .685  32
2024 09 07 05  01 54 31.756   +25 04 04.32  .00992 1.0139 128.2 20.9 .702  32
2024 09 07 06  01 54 36.757   +25 05 25.78  .01009 1.0140 128.2 21.0 .719  32
2024 09 07 07  01 54 41.590   +25 06 44.54  .01025 1.0141 128.2 21.0 .735  33
2024 09 07 08  01 54 46.264   +25 08 00.73  .01041 1.0142 128.2 21.0 .751  33
2024 09 07 09  01 54 50.784   +25 09 14.46  .01058 1.0143 128.2 21.1 .767  33
2024 09 07 10  01 54 55.160   +25 10 25.85  .01074 1.0144 128.2 21.1 .782  33
2024 09 07 11  01 54 59.395   +25 11 35.01  .01090 1.0144 128.2 21.1 .797  33
2024 09 07 12  01 55 03.498   +25 12 42.02  .01107 1.0145 128.2 21.2 .811  33
2024 09 07 13  01 55 07.472   +25 13 46.99  .01123 1.0146 128.3 21.2 .826  33
2024 09 07 14  01 55 11.324   +25 14 50.00  .01140 1.0147 128.3 21.2 .839  33
2024 09 07 15  01 55 15.059   +25 15 51.14  .01156 1.0148 128.3 21.3 .853  33
2024 09 07 16  01 55 18.682   +25 16 50.48  .01172 1.0149 128.3 21.3 .866  34
2024 09 07 17  01 55 22.196   +25 17 48.09  .01189 1.0150 128.3 21.3 .880  34
2024 09 07 18  01 55 25.607   +25 18 44.05  .01205 1.0151 128.4 21.4 .892  34
2024 09 07 19  01 55 28.917   +25 19 38.42  .01221 1.0152 128.4 21.4 .905  34
2024 09 07 20  01 55 32.132   +25 20 31.26  .01238 1.0153 128.4 21.4 .917  34
2024 09 07 21  01 55 35.255   +25 21 22.64  .01254 1.0154 128.4 21.4 .929  34
2024 09 07 22  01 55 38.289   +25 22 12.61  .01270 1.0155 128.4 21.5 .941  34
2024 09 07 23  01 55 41.237   +25 23 01.21  .01287 1.0156 128.5 21.5 .953  34
2024 09 08 00  01 55 44.103   +25 23 48.52  .01303 1.0157 128.5 21.5 .964  34
2024 09 08 01  01 55 46.889   +25 24 34.56  .01320 1.0158 128.5 21.6 .975  34
2024 09 08 02  01 55 49.598   +25 25 19.39  .01336 1.0159 128.5 21.6 .986  34
2024 09 08 03  01 55 52.234   +25 26 03.04  .01352 1.0160 128.6 21.6 1.00  34
2024 09 08 04  01 55 54.798   +25 26 45.57  .01369 1.0161 128.6 21.6 1.01  34
2024 09 08 05  01 55 57.293   +25 27 27.01  .01385 1.0162 128.6 21.7 1.02  34